Location: Brompton
(51.4000°N, 0.5333°E)
Time: 08:15:06
(UTC+00:00)

ERS-1 Rocket - Pass Details

Date: 11 May 2021
Orbit: 754 x 757 km, 98.4° (Epoch: 13 June)

Event Time Altitude Azimuth Distance (km) Brightness Sun altitude
Exits shadow 20:30:19 - 129° (SE) 2,347 4.8 -7.5°
Reaches altitude 10° 20:30:30 10° 128° (SE) 2,280 4.8 -7.5°
Maximum altitude 20:35:02 35° 64° (ENE) 1,204 3.9 -8.0°
Drops below altitude 10° 20:39:35 10° 359° (N) 2,295 6.2 -8.6°
Sets 20:42:03 0° 351° (N) 3,226 7.2 -8.8°
